EW4888 Weather Reports


time (UTC)temp
C
wind
direction
speed
KPH
gust
KPH
rain 1hr
cm
rain 24hr
cm
rain mn
cm
humidity
%
barometer
mb
20260906022121 22 50 3.2 8.0 0.00 0.00 0.00 99 1015.6
20260906021121 23 10 3.2 4.8 0.00 0.00 0.00 99 1015.7
20260906020121 23 37 0.0 3.2 0.00 0.00 0.00 98 1015.7
20260906015121 23 8 1.6 4.8 0.00 0.00 0.00 98 1015.6
20260906014122 23 339 3.2 4.8 0.00 0.00 0.00 97 1015.6
20260906013121 24 3 3.2 4.8 0.00 0.00 0.00 96 1015.2
20260906012122 24 337 4.8 6.4 0.00 0.00 0.00 95 1015.2
20260906011142 25 346 6.4 8.0 0.00 0.00 0.00 94 1015.1
20260906010122 25 346 6.4 9.7 0.00 0.00 0.00 93 1015.1
20260906005122 25 344 6.4 9.7 0.00 0.00 0.00 91 1015.1
20260906004121 26 310 8.0 12.9 0.00 0.00 0.00 90 1015.0
20260906003121 26 339 6.4 9.7 0.00 0.00 0.00 90 1014.8
20260906002121 26 328 6.4 9.7 0.00 0.00 0.00 89 1014.7
20260906001122 27 349 6.4 11.3 0.00 0.00 0.00 87 1014.7
20260906000143 27 332 4.8 6.4 0.00 0.00 0.00 86 1014.6
20260905235122 28 327 4.8 8.0 0.00 0.00 0.00 84 1014.6
20260905234121 28 342 4.8 8.0 0.00 0.00 0.00 84 1014.6
20260905233121 28 350 6.4 11.3 0.00 0.00 0.00 83 1014.5
20260905232121 29 322 6.4 11.3 0.00 0.00 0.00 84 1014.2
20260905231142 30 3 6.4 9.7 0.00 0.00 0.00 83 1014.1
20260905230121 30 12 6.4 9.7 0.00 0.00 0.00 81 1014.3
20260905225121 30 338 8.0 12.9 0.00 0.00 0.00 81 1014.3
20260905224121 31 342 6.4 9.7 0.00 0.00 0.00 80 1014.2
20260905223121 31 328 6.4 11.3 0.00 0.00 0.00 77 1014.2
20260905222121 32 329 6.4 9.7 0.00 0.00 0.00 76 1014.2
20260905221122 32 346 6.4 9.7 0.00 0.00 0.00 74 1014.0
20260905220121 32 326 6.4 11.3 0.00 0.00 0.00 75 1013.9
20260905215143 32 322 6.4 11.3 0.00 0.00 0.00 72 1014.0
20260905214121 32 341 6.4 9.7 0.00 0.00 0.00 72 1014.0
20260905213122 33 325 6.4 9.7 0.00 0.00 0.00 72 1013.9
20260905212122 33 339 6.4 9.7 0.00 0.00 0.00 70 1013.9
20260905211121 32 358 4.8 9.7 0.00 0.00 0.00 74 1013.9
20260905210122 33 356 4.8 8.0 0.00 0.00 0.00 74 1014.0
20260905205122 32 332 6.4 9.7 0.00 0.00 0.00 76 1014.0
20260905204121 33 336 6.4 9.7 0.00 0.00 0.00 72 1014.1
20260905203121 32 352 6.4 11.3 0.00 0.00 0.00 76 1014.3
20260905202142 32 329 4.8 11.3 0.00 0.00 0.00 73 1014.1
20260905201121 33 315 4.8 9.7 0.00 0.00 0.00 72 1014.3
20260905200122 32 347 4.8 8.0 0.00 0.00 0.00 76 1014.5
20260905195122 32 343 4.8 9.7 0.00 0.00 0.00 74 1014.3
20260905194122 33 321 4.8 6.4 0.00 0.00 0.00 73 1014.3
20260905193122 32 344 4.8 9.7 0.00 0.00 0.00 78 1014.5
20260905192122 33 342 3.2 8.0 0.00 0.00 0.00 72 1014.4
20260905191121 32 320 4.8 8.0 0.00 0.00 0.00 77 1014.7
20260905190122 33 352 4.8 8.0 0.00 0.00 0.00 76 1014.6
20260905185122 32 335 4.8 8.0 0.00 0.00 0.00 74 1014.6
20260905184122 33 352 4.8 9.7 0.00 0.00 0.00 73 1014.8
20260905183122 33 354 6.4 9.7 0.00 0.00 0.00 71 1014.8
20260905182121 33 341 4.8 9.7 0.00 0.00 0.00 74 1014.8
20260905181122 34 327 4.8 8.0 0.00 0.00 0.00 72 1014.9
20260905180122 33 339 4.8 9.7 0.00 0.00 0.00 71 1014.9
20260905175122 33 324 4.8 11.3 0.00 0.00 0.00 71 1014.9
20260905174122 33 9 4.8 8.0 0.00 0.00 0.00 74 1015.1
20260905173122 33 328 4.8 8.0 0.00 0.00 0.00 75 1015.1
20260905172122 32 326 6.4 8.0 0.00 0.00 0.00 72 1015.2
20260905171122 33 318 4.8 8.0 0.00 0.00 0.00 74 1015.2
20260905170122 32 320 4.8 8.0 0.00 0.00 0.00 76 1015.3
20260905165121 32 334 4.8 8.0 0.00 0.00 0.00 75 1015.3
20260905164121 32 10 4.8 8.0 0.00 0.00 0.00 77 1015.4
20260905163122 32 336 6.4 9.7 0.00 0.00 0.00 76 1015.3
20260905162122 32 323 4.8 8.0 0.00 0.00 0.00 78 1015.5
20260905161122 32 346 4.8 8.0 0.00 0.00 0.00 78 1015.4
20260905160122 31 338 6.4 9.7 0.00 0.00 0.00 78 1015.4
20260905155122 32 2 6.4 9.7 0.00 0.00 0.00 79 1015.4
20260905154122 31 314 4.8 9.7 0.00 0.00 0.00 77 1015.3
20260905153122 31 333 4.8 8.0 0.00 0.00 0.00 78 1015.1
20260905152122 31 331 4.8 8.0 0.00 0.00 0.00 76 1015.3
20260905151122 31 337 6.4 9.7 0.00 0.00 0.00 77 1015.0
20260905150122 30 339 6.4 11.3 0.00 0.00 0.00 76 1015.0
20260905145122 30 341 6.4 9.7 0.00 0.00 0.00 77 1015.0
20260905144122 30 326 6.4 11.3 0.00 0.00 0.00 76 1014.9
20260905143122 30 329 4.8 8.0 0.00 0.00 0.00 76 1015.0
20260905142122 30 320 4.8 8.0 0.00 0.00 0.00 78 1014.7
20260905141143 30 315 3.2 6.4 0.00 0.00 0.00 77 1014.7
20260905140121 30 307 3.2 6.4 0.00 0.00 0.00 79 1014.6
20260905135122 30 330 1.6 4.8 0.00 0.00 0.00 79 1014.6
20260905134143 28 328 1.6 4.8 0.00 0.00 0.00 81 1014.6
20260905133121 28 10 1.6 6.4 0.00 0.00 0.00 85 1014.5
20260905132122 28 3 3.2 6.4 0.00 0.00 0.00 83 1014.7
20260905131122 28 51 1.6 4.8 0.00 0.00 0.00 86 1014.7
20260905130121 27 229 1.6 4.8 0.00 0.00 0.00 87 1014.3
20260905125122 27 242 3.2 6.4 0.00 0.00 0.00 90 1014.3
20260905124122 26 238 3.2 4.8 0.00 0.00 0.00 92 1014.3
20260905123122 26 236 1.6 4.8 0.00 0.00 0.00 94 1014.2
20260905122122 25 235 3.2 3.2 0.00 0.00 0.00 99 1014.3
20260905121122 24 242 1.6 3.2 0.00 0.00 0.00 99 1014.1
20260905120121 23 203 0.0 0.0 0.00 0.00 0.00 99 1013.9
20260905115122 22 180 0.0 0.0 0.00 0.00 0.00 99 1013.8
20260905114122 22 180 0.0 0.0 0.00 0.00 0.00 99 1013.8
20260905113122 22 180 0.0 0.0 0.00 0.00 0.00 99 1013.8
20260905112143 22 180 0.0 0.0 0.00 0.00 0.00 99 1013.8
20260905111122 22 180 0.0 0.0 0.00 0.00 0.00 99 1013.6
20260905110122 22 135 0.0 0.0 0.00 0.00 0.00 99 1013.6
20260905105122 22 203 0.0 0.0 0.00 0.00 0.00 99 1013.6
20260905104122 23 113 0.0 0.0 0.00 0.00 0.00 99 1013.9
20260905103143 22 203 0.0 0.0 0.00 0.00 0.00 99 1013.8
20260905102143 23 315 0.0 0.0 0.00 0.00 0.00 99 1013.8
20260905101143 23 203 0.0 0.0 0.00 0.00 0.00 99 1013.6
20260905100122 23 158 0.0 0.0 0.00 0.00 0.00 99 1013.9
20260905095143 23 203 0.0 0.0 0.00 0.00 0.00 99 1013.9
20260905094122 23 225 0.0 0.0 0.00 0.00 0.00 99 1013.9
20260905093122 23 225 0.0 0.0 0.00 0.00 0.00 99 1013.9
20260905092122 23 180 0.0 0.0 0.00 0.00 0.00 99 1013.9
20260905091122 23 203 0.0 0.0 0.00 0.00 0.00 99 1013.9
20260905090122 23 135 0.0 0.0 0.00 0.00 0.00 99 1013.8
20260905085122 23 175 0.0 3.2 0.00 0.00 0.00 99 1013.8
20260905084122 23 180 0.0 0.0 0.00 0.00 0.00 99 1014.0
20260905083122 23 203 0.0 0.0 0.00 0.00 0.00 99 1014.0
20260905082122 23 180 0.0 0.0 0.00 0.00 0.00 99 1014.1
20260905081122 23 158 0.0 0.0 0.00 0.00 0.00 99 1014.0
20260905080122 23 135 0.0 0.0 0.00 0.00 0.00 99 1014.1
20260905075122 23 225 0.0 0.0 0.00 0.00 0.00 99 1014.1
20260905074122 23 203 0.0 0.0 0.00 0.00 0.00 99 1014.1
20260905073122 23 225 0.0 0.0 0.00 0.00 0.00 99 1014.2
20260905072143 23 203 0.0 0.0 0.00 0.00 0.00 99 1014.4
20260905071122 23 180 0.0 0.0 0.00 0.00 0.00 99 1014.2
20260905070122 23 135 0.0 0.0 0.00 0.00 0.00 99 1014.3
20260905065122 23 158 0.0 0.0 0.00 0.00 0.00 99 1014.3
20260905064122 23 23 0.0 0.0 0.00 0.00 0.00 99 1014.2
20260905063143 23 180 0.0 0.0 0.00 0.00 0.00 99 1014.4
20260905062122 23 203 0.0 0.0 0.00 0.00 0.00 99 1014.5
20260905061122 24 180 0.0 0.0 0.00 0.00 0.00 99 1014.7
20260905060122 23 203 0.0 0.0 0.00 0.00 0.00 99 1014.7
20260905055122 23 158 0.0 0.0 0.00 0.00 0.00 99 1014.7
20260905054143 23 158 0.0 0.0 0.00 0.00 0.00 99 1014.6
20260905053122 23 158 0.0 0.0 0.00 0.00 0.00 99 1014.6
20260905052122 23 158 0.0 0.0 0.00 0.00 0.00 99 1014.5
20260905051122 23 23 0.0 0.0 0.00 0.00 0.00 99 1014.5
20260905050122 24 180 0.0 0.0 0.00 0.00 0.00 99 1014.5
20260905045143 24 135 0.0 0.0 0.00 0.00 0.00 99 1014.5
20260905044143 24 23 0.0 0.0 0.00 0.00 0.00 99 1014.6
20260905043122 25 360 0.0 0.0 0.00 0.00 0.00 99 1014.6
20260905042122 25 61 0.0 3.2 0.00 0.00 0.00 99 1014.5
20260905041122 25 113 0.0 0.0 0.00 0.00 0.00 99 1014.4
20260905040122 25 202 1.6 3.2 0.00 0.00 0.00 99 1014.4
20260905035123 24 203 0.0 0.0 0.00 0.00 0.00 99 1014.4
20260905034122 24 203 0.0 0.0 0.00 0.00 0.00 99 1014.4
20260905033122 25 360 0.0 0.0 0.00 0.00 0.00 98 1014.5
20260905032122 25 360 0.0 0.0 0.00 0.00 0.00 98 1014.5
20260905031122 25 113 0.0 0.0 0.00 0.00 0.00 99 1014.4
20260905030122 25 293 0.0 0.0 0.00 0.00 0.00 99 1014.2
20260905025122 25 195 1.6 3.2 0.00 0.00 0.00 98 1014.2
20260905024122 25 180 0.0 0.0 0.00 0.00 0.00 99 1014.3
20260905023122 25 158 0.0 0.0 0.00 0.00 0.00 99 1014.3